Torna al catalogo

ARIANE 5 R/B

AttivoHEO
NORAD 38780·ROCKET BODY·🇫🇷 France

Lanciato Sep 28, 2012 da Guiana Space Centre

Loading…

Prossimi Passaggi (prossime 24 ore)

TLE

AggiornatoSource: Space-Track

Epoca: Sep 14, 2026, 10:32 UTC

1 38780U 12051C   26257.43903448  .00013586  00000-0  12358-2 0  9996
2 38780   6.1494 272.4737 6833729 243.0875  33.3228  2.88828653128610

Traccia ARIANE 5 R/B in tempo reale con AllMySat

Download on the App Store